This is the latest recevied weather packets stored in our database for station/object KG4LKY-5. If no packets are shown the sender has not sent any weather packets the latest 10 day(s).
| Time | Temp. | Humidity | Pressure | Rain* | Wind** | Luminosity | Snow |
|---|---|---|---|---|---|---|---|
| 1778031804 | 18.33° C | 53% | 1009.6 hPa | 0 mm | - | - | - |
| 1778031503 | 17.78° C | 55% | 1009.6 hPa | 0 mm | - | - | - |
| 1778031203 | 18.33° C | 52% | 1009.5 hPa | 0 mm | - | - | - |
| 1778030903 | 18.33° C | 51% | 1009.4 hPa | 0 mm | - | - | - |
| 1778030602 | 17.78° C | 59% | 1009.3 hPa | 0 mm | - | - | - |
| 1778030302 | 17.78° C | 52% | 1009.3 hPa | 0 mm | - | - | - |
| 1778029702 | 17.78° C | 50% | 1009.1 hPa | 0 mm | - | - | - |
| 1778029101 | 18.33° C | 49% | 1009 hPa | 0 mm | - | - | - |
| 1778028801 | 19.44° C | 47% | 1009.1 hPa | 0 mm | - | - | - |
| 1778028500 | 18.89° C | 44% | 1009 hPa | 0 mm | - | - | - |
| 1778027899 | 19.44° C | 43% | 1009 hPa | 0 mm | - | - | - |
| 1778027598 | 19.44° C | 43% | 1009.1 hPa | 0 mm | - | - | - |
| 1778026998 | 18.89° C | 43% | 1009.2 hPa | 0 mm | - | - | - |
| 1778026696 | 20° C | 42% | 1009.2 hPa | 0 mm | - | - | - |
| 1778026396 | 19.44° C | 43% | 1009.3 hPa | 0 mm | - | - | - |
| 1778026095 | 19.44° C | 43% | 1009.4 hPa | 0 mm | - | - | - |
| 1778025495 | 20.56° C | 42% | 1009.4 hPa | 0 mm | - | - | - |
| 1778025195 | 20.56° C | 41% | 1009.4 hPa | 0 mm | - | - | - |
| 1778024894 | 21.11° C | 41% | 1009.3 hPa | 0 mm | - | - | - |
| 1778024593 | 20.56° C | 39% | 1009.4 hPa | 0 mm | - | - | - |
| 1778024292 | 21.67° C | 38% | 1009.4 hPa | 0 mm | - | - | - |
| 1778023692 | 22.22° C | 35% | 1009.5 hPa | 0 mm | - | - | - |
| 1778023391 | 22.78° C | 35% | 1009.5 hPa | 0 mm | - | - | - |
| 1778022791 | 22.78° C | 35% | 1009.6 hPa | 0 mm | - | - | - |
| 1778022492 | 20.56° C | 41% | 1009.8 hPa | 0 mm | - | - | - |
* Rain since midnight (hover to see other rain measurements)
** Current wind speed in m/s (hover to see current wind gust speed)